カタログに戻る

USA 346

運用中軍事GEO
NORAD 57836·PAYLOAD·🇺🇸 United States

打ち上げ Sep 10, 2023 から Cape Canaveral Space Force Station

Loading…

TLE

古いSource: Mike McCants

元期: Jun 14, 2025, 04:49 UTC

1 57836U 23140A   25165.20101659 0.00000000  00000-0  00000-0 0    05
2 57836  12.3140   7.1362 0000620 127.0857 232.9143  1.00270817    09

AllMySatでUSA 346をリアルタイム追跡

Download on the App Store